Location: Bord�res
(43.2000°N, 0.2167°W)
Time: 10:37:52
(UTC+00:00)

CSL-04 DEB - Pass Details

Date: 03 March 2021
Orbit: 546 x 626 km, 98.8° (Epoch: 20 April)

Event Time Altitude Azimuth Distance (km) Brightness Sun altitude
Rises 18:14:17 0° 14° (NNE) 2,731 7.7 -4.7°
Reaches altitude 10° 18:16:24 10° 15° (NNE) 1,839 6.8 -5.1°
Maximum altitude 18:20:22 86° 104° (ESE) 566 4.4 -5.9°
Drops below altitude 10° 18:24:23 10° 194° (SSW) 1,859 7.2 -6.6°
Sets 18:26:32 0° 195° (SSW) 2,763 8.1 -7.0°
